Starlink 31749

operational
NORAD ID: 59631 Int'l Des: 2024-082 Owner: SPXS Country: US Constellation: starlink
LEOCIRCULAR

关于 Starlink 31749

正在加载描述...

实时位置

正在加载3D地球...

即将过境

高度历史

Altitude vs Time

uPlot chart will show altitude changes over time

两行轨道根数

1 59631U 24082A 25259.09364550 -.00000796 00000-0 -19393-4 0 9998
2 59631 43.0024 45.5040 0001716 257.1008 102.9652 15.27568594 78311
Epoch: Sep 16, 2025 • Age: 10 hours

当前状态

高度 483.4 km
速度 7.63 km/s
星下点 21.82°N, 104.24°W
发射日期 May 3, 2024
运行时间 1.3 years
类型 internet

技术详情

分类 Payload
质量 730.00 kg
干质量 700.00 kg
总质量 730.00 kg
长度 0.30 m
直径 4.10 m
跨度 29.00 m
形状 Box + pan
制造商 SPXS
平台类型 Starlink V2M
阶段状态 In Orbit
所有者/国家 SPXS/US

大型星座

Loading constellations...